Location: Songkhla
(7.2000°N, 100.6000°E)
Time: 21:56:43
(UTC+07:00)

ISS - Visible Passes

Search period start: 22 October 2019 00:00
Search period end: 01 November 2019 00:00
Orbit: 411 x 421 km, 51.6° (Epoch: 22 October)

Date Brightness Start Highest point End Pass type
(mag) Time Alt. Az. Time Alt. Az. Time Alt. Az.
22 Oct -0.2 03:56:46 11° ESE 03:56:46 11° ESE 03:57:13 10° E visible
22 Oct -2.4 05:29:48 11° WSW 05:32:12 21° NW 05:34:50 10° N visible
23 Oct -2.3 04:45:07 27° N 04:45:07 27° N 04:46:55 10° NNE visible
